OBJECT C

基本信息
目录编号:
66995
目录名称:
OBJECT C
国际标识:
2025-292C
轨道中心:
EARTH
物体状态:
在轨
发射日期:
2025-12-10 UTC
国别:
中国 (CN)
轨道信息
数据来源: 国际轨道数据
星历时间: 2026-09-05T12:11:32+0800
半长轴: 6922.962km
偏心率: 0.0015946
轨道倾角: 97.625°
近地点辐角: 86.004°
升交点赤经: 323.202°
平近点角: 274.301°
近地点: 533.785km
远地点: 555.865km
周期: 95.543分钟
每日圈数: 15.071792
详细信息
发射场:
JSC
轨道高度:
LEO
数据来源:
AOE Working Group
参考系:
TEME
时间系统:
UTC
历元类型:
SGP4
2D轨道图
3D轨道图
轨道高度分析图
轨道倾角分析图
轨道综合分析图
查看轨道综合分析图